Wind_Speed
13 12 11 9 9 8 7 6 7 7 6 8 11 13 14 16 18 19 19 20 19 17 16 14 12 11 9 9 9 10 11 12 14 15 17 18 19 20 21 21 22 22 23 23
11 10 9 9 8 8 7 7 8 7 6 8 10 13 14 15 16 16 16 16 15 14 13 10 9 7 7 8 9 10 12 13 15 17 19 20 21 22 22 22 22 23 23 23
8 8 8 8 8 7 7 6 7 7 7 8 10 11 11 12 11 11 11 11 10 8 8 7 6 5 7 8 10 12 13 15 17 19 20 21 22 23 23 23 22 22 23 23
7 7 7 7 7 7 6 7 6 7 8 8 9 9 8 8 7 6 5 5 4 3 4 4 4 5 7 9 11 13 15 17 18 19 21 21 22 22 22 22 22 22 22 22
7 7 7 7 7 7 7 7 7 6 6 7 8 8 8 6 6 5 4 3 4 4 3 3 5 7 9 11 13 15 17 18 18 19 20 20 20 21 21 21 21 21 20 20
6 6 7 7 7 8 7 7 6 6 6 7 7 6 7 7 6 6 5 5 4 4 5 5 7 9 10 12 14 15 17 18 19 19 19 20 20 20 21 21 21 21 21 20
9 8 7 7 7 7 6 5 6 7 7 8 7 6 6 6 6 6 7 7 6 6 7 8 9 11 11 13 14 16 17 18 19 19 19 20 20 20 20 21 21 22 22 22
7 8 8 7 7 6 5 3 2 2 5 7 7 7 7 6 6 7 7 8 8 8 10 11 12 12 13 14 15 17 17 18 18 19 19 20 21 21 21 22 22 23 23 24
7 9 9 8 7 5 5 4 4 4 5 6 8 9 9 8 8 8 8 8 9 10 11 12 13 13 14 15 16 17 17 18 19 20 20 21 21 22 23 23 24 24 25 26
9 9 10 8 8 7 6 5 5 4 3 5 9 10 11 10 9 9 9 9 10 11 12 13 13 14 15 15 16 17 18 19 20 21 22 22 23 24 25 25 26 27 27 28
9 8 10 10 9 9 8 7 6 6 6 3 6 10 11 11 10 10 10 10 11 12 13 14 15 15 15 16 17 18 19 20 21 22 23 24 25 25 26 27 28 29 30 31
10 9 9 11 11 11 10 10 9 7 9 9 7 11 13 11 10 10 11 11 12 13 14 14 15 15 16 17 18 19 20 21 22 24 25 26 27 28 29 29 30 31 32 33
12 10 8 10 12 12 12 12 11 11 11 11 8 11 15 13 11 11 12 13 14 14 15 15 15 16 17 18 19 20 21 23 24 26 27 28 29 30 30 31 32 33 35 36
13 12 10 10 12 14 13 14 14 14 12 13 13 13 15 15 14 13 13 14 15 15 15 15 16 17 18 19 20 21 23 24 26 28 29 30 31 32 32 33 35 36 37 39
13 12 12 12 14 14 14 14 16 15 15 14 14 15 16 17 15 15 15 15 16 15 16 16 17 18 19 20 22 23 25 26 28 30 31 31 32 33 34 35 37 38 40 41
13 12 12 12 13 14 13 14 15 15 15 15 15 15 17 17 16 16 16 16 16 16 17 17 18 19 20 22 24 25 27 28 30 31 32 32 33 34 35 37 39 41 42 44
13 12 12 11 13 13 11 13 13 14 14 14 15 16 17 17 17 17 17 17 17 17 18 19 20 21 23 24 26 27 28 30 31 32 33 33 34 35 37 40 42 43 44 46
12 13 12 11 13 12 11 15 13 13 13 14 15 16 17 18 18 19 19 19 19 19 19 20 22 23 25 26 28 29 30 31 32 33 33 34 35 37 40 43 45 46 47 48
14 14 14 13 12 13 13 17 16 14 14 16 17 18 20 20 20 21 20 20 20 20 21 22 24 25 27 28 30 31 32 32 33 34 34 35 37 40 43 45 47 48 49 50
17 17 17 17 15 14 15 21 18 17 15 20 20 21 22 22 21 22 23 22 22 23 24 25 26 28 29 31 32 33 33 34 34 35 36 38 40 42 45 48 49 50 50 50
19 19 19 19 19 17 23 22 20 19 20 22 22 22 23 23 23 24 25 25 25 26 27 27 29 30 32 33 34 35 35 35 36 37 38 41 43 45 48 50 51 51 51 50
20 21 22 22 20 21 26 24 23 23 23 23 23 24 25 25 25 26 27 28 28 30 30 31 32 33 34 35 36 37 37 37 38 39 42 44 46 49 51 52 52 53 53 50
22 23 24 24 24 28 27 26 25 25 24 24 25 26 27 27 28 28 29 30 31 32 33 34 35 36 37 38 39 40 40 40 41 43 45 47 49 50 53 54 54 54 53 49
26 25 26 26 27 28 27 28 27 27 27 27 27 28 29 29 30 31 32 32 33 34 35 36 37 38 40 41 43 43 44 43 44 46 48 49 51 52 55 55 55 53 51 47
29 28 28 29 30 30 30 30 30 30 31 31 31 31 31 32 33 33 34 34 35 36 36 37 39 41 42 45 47 48 47 48 49 49 50 52 54 55 56 56 55 52 49 45
28 29 30 31 32 32 32 32 33 33 33 33 33 33 34 34 35 35 36 36 37 38 38 39 41 43 45 49 52 52 52 52 52 52 53 54 55 56 57 55 52 49 46 43
Wind_Direction
11 13 8 359 3 3 359 343 317 304 287 269 268 270 270 269 270 273 274 275 273 269 271 273 276 279 287 296 299 302 306 308 307 307 309 309 309 308 307 306 304 302 300 298
5 359 354 359 1 2 2 350 336 326 302 289 280 278 279 278 276 277 276 274 271 269 268 268 274 280 293 302 306 311 314 314 314 315 316 316 315 315 314 313 310 308 305 303
352 340 345 354 354 347 345 342 332 332 322 307 299 290 289 292 285 278 277 278 274 268 267 273 281 296 307 315 317 319 319 319 319 319 318 318 318 317 316 315 313 311 308 306
340 333 336 341 341 338 329 323 320 322 332 333 333 332 325 318 315 306 298 291 281 277 283 287 321 329 326 325 324 323 322 322 321 320 319 319 319 318 317 316 314 313 311 309
330 330 326 323 321 318 313 317 317 321 332 337 337 345 345 352 357 4 8 25 33 35 20 352 345 335 329 327 325 325 324 323 321 321 321 320 320 319 319 318 317 316 315 313
322 324 317 316 318 314 314 317 321 326 341 331 323 339 344 354 10 23 24 24 22 15 4 351 340 333 329 328 327 325 323 322 321 320 321 320 320 320 319 319 318 318 316 315
320 319 313 312 318 322 324 348 3 350 338 308 307 316 324 335 349 357 3 5 2 355 349 344 336 330 328 325 323 322 322 323 322 321 321 321 321 320 320 320 319 318 317 315
307 306 302 305 308 315 332 348 330 301 301 304 302 303 309 318 329 336 343 347 345 340 336 332 328 324 322 321 321 321 321 322 322 321 321 320 320 320 319 319 318 317 316 315
286 287 293 293 297 301 310 325 318 335 322 321 303 301 307 315 321 326 331 332 330 327 324 320 318 316 316 317 317 318 319 319 320 320 319 319 319 318 318 318 317 317 316 315
288 287 290 289 285 284 288 301 317 332 310 321 312 305 303 308 314 317 318 319 318 316 313 310 308 308 309 311 313 314 316 318 319 320 321 321 320 319 319 318 318 317 317 316
288 285 285 285 280 278 281 286 298 307 297 304 307 296 298 301 303 304 308 310 310 309 307 306 304 304 306 308 310 312 315 319 321 323 324 324 323 322 321 320 319 318 317 317
281 279 276 280 279 276 273 278 287 297 296 295 297 292 289 290 290 294 300 304 304 303 302 302 300 300 303 306 309 313 317 320 323 325 325 325 324 323 322 321 320 319 318 317
278 276 288 297 292 280 275 274 279 285 291 293 290 284 283 282 282 287 293 297 298 298 297 297 299 300 302 306 310 315 318 321 324 326 326 325 324 324 324 323 321 320 319 318
274 271 258 250 255 267 275 279 278 280 284 283 282 274 277 281 284 289 293 296 296 295 296 298 300 301 303 307 311 315 319 322 324 326 326 325 325 324 323 323 322 321 320 319
273 275 271 266 268 269 270 272 275 276 275 273 272 273 273 276 285 291 296 298 298 298 298 300 302 303 306 310 314 317 320 322 324 326 326 325 324 324 324 323 323 322 321 319
273 272 271 274 277 277 276 275 274 276 275 273 271 272 272 278 285 291 295 299 299 300 300 301 304 306 308 312 315 317 320 321 323 324 325 325 324 324 324 324 323 322 321 319
272 271 269 269 274 282 291 281 280 279 275 271 270 269 274 281 287 293 297 299 300 301 301 303 305 306 309 312 314 316 318 320 321 322 323 323 323 323 323 323 323 322 321 320
266 266 267 266 268 275 272 277 280 279 279 277 275 277 282 287 292 296 298 299 300 301 302 303 305 306 308 311 313 315 317 318 319 320 321 322 322 322 323 323 323 322 322 321
263 263 264 264 269 276 278 280 281 283 283 279 280 284 287 291 296 297 297 298 299 301 302 303 305 306 308 310 312 314 315 317 318 318 319 320 322 323 324 324 324 323 323 322
265 264 266 265 263 262 265 270 278 283 286 278 283 286 289 293 297 297 297 298 300 301 303 304 305 307 308 310 311 313 315 315 315 316 317 319 321 324 326 325 325 325 324 323
268 268 268 269 270 271 267 271 275 276 273 278 285 287 290 293 295 296 297 299 301 302 303 304 306 306 308 309 311 312 314 314 314 315 316 318 321 323 325 326 326 325 325 324
266 267 268 266 268 266 269 273 273 275 279 283 285 288 291 293 295 297 298 300 302 304 305 306 307 308 308 310 311 312 313 313 314 315 316 318 319 321 323 324 325 325 325 325
262 259 261 264 265 267 273 278 279 280 281 282 284 287 290 293 295 296 298 300 302 304 305 307 308 308 308 309 310 310 310 311 312 315 316 316 317 319 321 323 323 324 325 325
266 263 264 268 269 273 277 279 281 283 284 284 286 288 289 291 293 294 296 299 301 302 304 305 305 306 306 307 308 307 307 308 310 312 313 314 315 317 319 321 322 323 324 324
262 266 266 268 271 275 277 279 281 283 284 286 287 288 289 290 292 293 295 297 299 300 301 302 303 303 303 305 304 303 304 307 309 310 310 313 315 316 317 319 320 321 322 322
265 266 267 269 272 273 276 278 279 281 283 284 285 287 288 289 291 293 295 296 297 298 299 300 300 301 302 303 303 303 302 305 308 309 309 311 313 314 315 316 318 319 320 320
Height
5883 5882 5881 5879 5877 5876 5875 5874 5873 5871 5871 5872 5872 5872 5871 5870 5870 5870 5869 5868 5868 5868 5869 5869 5869 5870 5870 5870 5869 5869 5867 5866 5864 5863 5860 5858 5856 5853 5851 5848 5846 5843 5841 5838
5884 5883 5881 5879 5877 5876 5874 5874 5872 5870 5870 5870 5869 5869 5867 5866 5865 5865 5864 5864 5864 5865 5865 5865 5866 5867 5867 5867 5867 5865 5864 5862 5861 5858 5856 5853 5850 5848 5845 5842 5840 5837 5835 5832
5885 5884 5881 5879 5877 5876 5875 5874 5872 5871 5869 5868 5867 5866 5864 5863 5861 5861 5861 5861 5861 5861 5862 5862 5863 5864 5864 5864 5863 5862 5860 5859 5856 5854 5851 5849 5846 5843 5840 5837 5834 5832 5829 5826
5884 5883 5881 5879 5878 5876 5875 5873 5872 5870 5869 5868 5867 5865 5863 5861 5860 5859 5858 5858 5858 5859 5860 5861 5862 5862 5862 5861 5860 5859 5857 5855 5852 5850 5847 5844 5841 5838 5835 5832 5830 5827 5824 5821
5884 5882 5880 5879 5878 5876 5874 5873 5871 5870 5869 5868 5867 5866 5864 5861 5860 5859 5859 5858 5859 5859 5860 5860 5861 5860 5860 5859 5857 5856 5853 5851 5849 5846 5844 5841 5838 5834 5831 5828 5825 5823 5820 5817
5883 5881 5880 5878 5876 5875 5873 5872 5871 5870 5870 5870 5868 5867 5865 5863 5861 5861 5860 5859 5859 5859 5860 5859 5859 5858 5857 5856 5854 5853 5851 5848 5846 5843 5840 5837 5834 5831 5828 5825 5821 5818 5815 5812
5882 5880 5878 5877 5876 5874 5873 5873 5874 5873 5872 5870 5867 5866 5866 5863 5862 5861 5860 5859 5859 5859 5858 5858 5857 5856 5855 5854 5852 5850 5848 5846 5843 5840 5837 5834 5831 5827 5824 5821 5817 5813 5810 5807
5881 5881 5878 5876 5875 5874 5872 5873 5874 5874 5873 5870 5867 5866 5865 5863 5862 5861 5860 5859 5858 5857 5857 5856 5855 5854 5853 5852 5850 5848 5846 5843 5840 5837 5834 5831 5827 5824 5820 5816 5812 5809 5805 5801
5880 5879 5876 5874 5874 5873 5872 5872 5871 5871 5870 5870 5867 5865 5864 5862 5861 5860 5859 5858 5857 5856 5855 5854 5853 5852 5851 5850 5848 5845 5843 5840 5837 5834 5831 5827 5823 5819 5815 5811 5807 5803 5799 5796
5876 5876 5874 5873 5872 5872 5871 5870 5870 5870 5870 5871 5868 5865 5864 5861 5860 5859 5858 5857 5856 5855 5854 5853 5852 5850 5849 5847 5845 5843 5840 5837 5834 5830 5826 5822 5818 5814 5810 5806 5802 5797 5793 5789
5873 5873 5873 5871 5870 5871 5870 5869 5868 5869 5868 5868 5869 5868 5862 5860 5859 5858 5857 5855 5854 5853 5852 5851 5849 5848 5846 5844 5842 5840 5837 5833 5829 5825 5821 5817 5813 5808 5804 5800 5795 5791 5786 5782
5870 5871 5871 5869 5868 5867 5867 5867 5866 5867 5866 5865 5866 5867 5859 5858 5857 5856 5855 5854 5852 5851 5849 5848 5846 5845 5843 5841 5838 5835 5832 5828 5824 5820 5816 5811 5807 5802 5797 5793 5788 5784 5779 5774
5867 5868 5868 5868 5867 5865 5864 5863 5863 5863 5863 5862 5864 5865 5857 5856 5855 5854 5853 5851 5850 5848 5846 5845 5843 5841 5839 5837 5834 5830 5827 5823 5819 5814 5810 5805 5800 5796 5791 5786 5781 5776 5771 5766
5863 5863 5865 5867 5864 5863 5861 5861 5860 5860 5860 5860 5860 5858 5856 5853 5852 5851 5849 5848 5846 5844 5843 5841 5839 5837 5835 5832 5829 5825 5821 5817 5813 5808 5804 5799 5794 5789 5784 5779 5774 5769 5763 5757
5859 5860 5859 5859 5858 5858 5857 5857 5856 5855 5855 5855 5855 5853 5852 5850 5848 5847 5846 5844 5842 5840 5838 5836 5834 5832 5829 5826 5823 5819 5815 5811 5807 5802 5797 5792 5787 5782 5777 5772 5766 5761 5754 5748
5855 5855 5855 5855 5855 5854 5853 5853 5852 5851 5850 5850 5849 5849 5847 5845 5844 5843 5841 5840 5838 5836 5834 5831 5829 5826 5824 5820 5817 5813 5809 5805 5800 5796 5791 5786 5780 5775 5770 5764 5758 5752 5745 5739
5852 5851 5852 5852 5852 5850 5851 5849 5848 5847 5846 5845 5845 5845 5842 5841 5840 5839 5837 5835 5833 5831 5828 5826 5823 5821 5818 5814 5811 5807 5802 5798 5793 5789 5784 5779 5773 5768 5762 5756 5750 5743 5736 5728
5848 5847 5847 5848 5849 5848 5849 5845 5844 5843 5842 5841 5840 5839 5838 5836 5835 5834 5832 5830 5827 5825 5823 5820 5817 5815 5811 5808 5804 5800 5796 5791 5786 5781 5776 5771 5766 5760 5754 5747 5740 5733 5725 5718
5843 5843 5843 5844 5845 5844 5844 5841 5839 5839 5839 5837 5836 5835 5833 5831 5830 5828 5826 5824 5822 5820 5817 5814 5811 5808 5805 5801 5797 5793 5788 5784 5779 5774 5769 5763 5758 5751 5745 5738 5730 5723 5715 5707
5839 5839 5839 5839 5839 5841 5841 5836 5835 5836 5835 5833 5831 5830 5828 5826 5826 5824 5820 5818 5816 5813 5811 5808 5805 5801 5798 5794 5789 5785 5781 5776 5771 5766 5760 5755 5749 5742 5735 5728 5720 5712 5704 5696
5834 5833 5834 5833 5834 5835 5832 5831 5831 5833 5831 5828 5826 5824 5822 5821 5819 5817 5814 5811 5809 5806 5804 5801 5798 5794 5790 5786 5782 5777 5772 5768 5763 5757 5752 5746 5739 5733 5726 5718 5710 5702 5694 5685
5828 5829 5828 5828 5829 5830 5824 5825 5825 5825 5823 5822 5820 5818 5816 5814 5812 5809 5807 5804 5801 5799 5796 5793 5789 5785 5781 5777 5773 5768 5764 5759 5754 5748 5742 5736 5729 5723 5715 5708 5699 5691 5683 5675
5821 5822 5821 5822 5823 5819 5818 5818 5817 5817 5816 5814 5813 5811 5809 5807 5805 5802 5799 5797 5794 5791 5787 5784 5780 5776 5772 5768 5764 5759 5754 5749 5743 5738 5732 5725 5719 5712 5704 5697 5689 5680 5672 5664
5813 5813 5813 5813 5813 5811 5811 5810 5809 5808 5807 5806 5805 5803 5801 5799 5796 5794 5791 5788 5785 5782 5778 5775 5771 5767 5763 5758 5753 5749 5743 5738 5733 5727 5721 5715 5708 5701 5693 5685 5677 5670 5662 5654
5806 5806 5806 5806 5805 5804 5803 5802 5801 5800 5798 5797 5796 5794 5792 5790 5787 5785 5782 5779 5776 5772 5769 5765 5761 5757 5752 5748 5743 5738 5732 5727 5722 5716 5710 5703 5697 5690 5682 5675 5667 5659 5652 5644
5798 5798 5798 5797 5797 5796 5795 5794 5792 5791 5790 5788 5786 5784 5782 5780 5777 5775 5772 5769 5766 5762 5759 5755 5751 5747 5742 5737 5732 5726 5721 5716 5710 5705 5699 5692 5685 5678 5671 5664 5656 5648 5642 5635